SUNNYSIDE Weather Reports


time (UTC)temp
F
wind
direction
speed
knots
gust
knots
rain 1hr
in
rain 24hr
in
rain mn
in
humidity
%
barometer
mb
20260905055537 61 115 0.0 0.9 0.00 0.00 0.00 67 986.0
20260905055036 61 115 0.0 0.9 0.00 0.00 0.00 67 985.9
20260905054602 61 115 0.0 0.0 0.00 0.00 0.00 67 986.0
20260905054036 61 115 0.0 0.0 0.00 0.00 0.00 67 986.0
20260905053539 61 115 0.0 0.9 0.00 0.00 0.00 67 986.0
20260905053035 61 115 0.0 0.9 0.00 0.00 0.00 67 986.0
20260905052533 62 115 0.0 0.9 0.00 0.00 0.00 67 986.0
20260905052033 62 115 0.0 0.9 0.00 0.00 0.00 67 986.1
20260905051534 62 115 0.0 0.0 0.00 0.00 0.00 67 986.2
20260905051031 62 115 0.0 0.0 0.00 0.00 0.00 67 986.1
20260905050534 62 115 0.0 0.0 0.00 0.00 0.00 67 985.9
20260905050031 63 115 0.0 0.0 0.00 0.00 0.00 67 985.8
20260905045533 63 115 0.0 0.0 0.00 0.00 0.00 67 985.7
20260905045029 63 115 0.0 0.0 0.00 0.00 0.00 67 985.7
20260905044530 63 115 0.0 0.0 0.00 0.00 0.00 67 985.8
20260905044028 63 115 0.0 0.9 0.00 0.00 0.00 67 985.7
20260905043528 63 115 0.0 0.9 0.00 0.00 0.00 67 985.8
20260905043029 63 115 0.0 0.0 0.00 0.00 0.00 67 985.8
20260905042528 63 115 0.0 0.0 0.00 0.00 0.00 67 985.7
20260905042028 63 115 0.0 0.0 0.00 0.00 0.00 67 985.6
20260905041528 63 115 0.0 0.0 0.00 0.00 0.00 67 985.7
20260905041027 63 115 0.0 0.0 0.00 0.00 0.00 66 985.6
20260905040531 63 115 0.0 0.0 0.00 0.00 0.00 66 985.6
20260905040027 63 115 0.0 0.0 0.00 0.00 0.00 66 985.5
20260905035528 63 115 0.0 0.0 0.00 0.00 0.00 66 985.5
20260905035028 63 115 0.0 0.0 0.00 0.00 0.00 65 985.5
20260905034527 63 115 0.0 0.0 0.00 0.00 0.00 65 985.6
20260905034027 64 115 0.0 0.0 0.00 0.00 0.00 64 985.6
20260905033528 64 115 0.0 0.0 0.00 0.00 0.00 65 985.6
20260905033028 64 115 0.0 0.0 0.00 0.00 0.00 64 985.6
20260905032526 64 115 0.0 0.0 0.00 0.00 0.00 64 985.5
20260905032026 64 115 0.0 0.0 0.00 0.00 0.00 64 985.7
20260905031526 65 115 0.0 0.0 0.00 0.00 0.00 64 985.6
20260905031025 65 115 0.0 0.0 0.00 0.00 0.00 64 985.6
20260905030526 65 115 0.0 0.0 0.00 0.00 0.00 64 985.6
20260905030033 65 115 0.0 0.0 0.00 0.00 0.00 64 985.5
20260905025527 65 115 0.0 0.0 0.00 0.00 0.00 63 985.4
20260905025026 65 115 0.0 0.9 0.00 0.00 0.00 64 985.6
20260905024525 65 115 0.0 0.9 0.00 0.00 0.00 64 985.5
20260905024024 65 115 0.0 0.9 0.00 0.00 0.00 63 985.5
20260905023525 66 115 0.0 0.0 0.00 0.00 0.00 63 985.4
20260905023024 66 115 0.0 0.0 0.00 0.00 0.00 62 985.4
20260905022524 66 115 0.0 0.0 0.00 0.00 0.00 62 985.4
20260905022026 67 115 0.0 0.0 0.00 0.00 0.00 61 985.4
20260905021525 67 115 0.0 0.0 0.00 0.00 0.00 61 985.3
20260905021024 67 115 0.0 0.0 0.00 0.00 0.00 61 985.0
20260905020527 67 115 0.0 1.7 0.00 0.00 0.00 61 985.2
20260905020023 67 115 0.0 1.7 0.00 0.00 0.00 61 985.2
20260905015523 68 115 0.0 0.9 0.00 0.00 0.00 61 985.2
20260905015024 68 115 0.0 0.0 0.00 0.00 0.00 60 985.0
20260905014523 68 115 0.0 0.0 0.00 0.00 0.00 60 984.9
20260905014022 68 115 0.0 0.0 0.00 0.00 0.00 59 984.9
20260905013524 69 115 0.0 0.0 0.00 0.00 0.00 58 984.9
20260905013022 69 115 0.0 0.0 0.00 0.00 0.00 57 984.8
20260905012524 70 115 0.0 0.0 0.00 0.00 0.00 57 984.8
20260905012022 70 115 0.0 0.0 0.00 0.00 0.00 58 984.8
20260905011522 71 115 0.0 0.0 0.00 0.00 0.00 58 984.8
20260905011022 71 115 0.0 0.0 0.00 0.00 0.00 57 984.6
20260905010521 72 115 0.0 0.9 0.00 0.00 0.00 57 984.6
20260905010021 73 115 0.0 0.9 0.00 0.00 0.00 57 984.6
20260905005521 73 115 0.0 0.0 0.00 0.00 0.00 56 984.6
20260905005021 74 115 0.0 0.0 0.00 0.00 0.00 56 984.5
20260905004521 74 115 0.0 0.9 0.00 0.00 0.00 56 984.3
20260905004021 74 115 0.0 0.9 0.00 0.00 0.00 56 984.3
20260905003521 74 115 0.0 0.9 0.00 0.00 0.00 56 984.4
20260905003023 75 360 0.0 2.6 0.00 0.00 0.00 56 984.5
20260905002522 75 360 0.9 5.2 0.00 0.00 0.00 55 984.6
20260905002020 75 123 0.9 3.5 0.00 0.00 0.00 55 984.6
20260905001521 76 87 0.9 4.3 0.00 0.00 0.00 55 984.6
20260905001021 76 76 1.7 4.3 0.00 0.00 0.00 55 984.7
20260905000526 76 130 0.9 5.2 0.00 0.00 0.00 55 984.7
20260905000031 76 114 1.7 5.2 0.00 0.00 0.00 55 984.8
20260904235521 76 124 2.6 5.2 0.00 0.00 0.00 55 984.9
20260904235019 76 144 1.7 3.5 0.00 0.00 0.00 55 984.9
20260904234522 76 117 1.7 7.0 0.00 0.00 0.00 54 984.8
20260904234019 77 128 2.6 8.7 0.00 0.00 0.00 54 984.9
20260904233519 77 123 3.5 8.7 0.00 0.00 0.00 54 984.9
20260904233020 77 360 2.6 7.0 0.00 0.00 0.00 54 984.8
20260904232518 77 132 3.5 7.0 0.00 0.00 0.00 54 984.8
20260904232020 77 137 2.6 7.0 0.00 0.00 0.00 53 984.8
20260904231520 77 66 2.6 7.0 0.00 0.00 0.00 53 984.7
20260904231018 77 138 1.7 7.8 0.00 0.00 0.00 54 984.7
20260904230518 77 107 4.3 7.8 0.00 0.00 0.00 53 984.8
20260904230019 77 101 4.3 7.0 0.00 0.00 0.00 54 984.8
20260904225519 77 140 3.5 10.4 0.00 0.00 0.00 54 984.8
20260904225017 78 91 5.2 10.4 0.00 0.00 0.00 53 984.7
20260904224520 78 144 4.3 9.6 0.00 0.00 0.00 53 984.9
20260904224017 78 86 4.3 10.4 0.00 0.00 0.00 53 984.8
20260904223516 78 360 6.1 10.4 0.00 0.00 0.00 52 984.8
20260904223019 79 92 3.5 7.0 0.00 0.00 0.00 52 984.6
20260904222519 79 96 2.6 5.2 0.00 0.00 0.00 49 984.8
20260904222016 79 79 0.9 7.8 0.00 0.00 0.00 50 984.7
20260904221516 79 115 0.9 7.8 0.00 0.00 0.00 49 984.7
20260904221017 79 181 1.7 4.3 0.00 0.00 0.00 48 984.7
20260904220517 79 86 1.7 5.2 0.00 0.00 0.00 49 984.7
20260904220017 79 360 2.6 6.1 0.00 0.00 0.00 49 984.7
20260904215517 79 88 0.9 5.2 0.00 0.00 0.00 50 984.7
20260904215015 79 88 1.7 6.1 0.00 0.00 0.00 51 984.6
20260904214515 79 86 0.9 7.8 0.00 0.00 0.00 50 984.6
20260904214015 79 88 4.3 7.8 0.00 0.00 0.00 49 984.5
20260904213516 79 116 2.6 6.1 0.00 0.00 0.00 49 984.5
20260904213015 79 136 3.5 7.0 0.00 0.00 0.00 50 984.4
20260904212515 79 122 3.5 7.0 0.00 0.00 0.00 49 984.4
20260904212014 80 107 0.9 8.7 0.00 0.00 0.00 50 984.3
20260904211515 79 140 0.9 8.7 0.00 0.00 0.00 50 984.4
20260904211013 79 174 2.6 7.0 0.00 0.00 0.00 50 984.3
20260904210512 79 89 0.9 6.1 0.00 0.00 0.00 49 984.3
20260904210016 79 107 3.5 7.0 0.00 0.00 0.00 49 984.3
20260904205512 79 98 2.6 7.0 0.00 0.00 0.00 49 984.6
20260904205011 79 34 0.9 6.1 0.00 0.00 0.00 49 984.5
20260904204511 79 123 1.7 7.0 0.00 0.00 0.00 51 984.5
20260904204014 79 132 2.6 7.0 0.00 0.00 0.00 49 984.6
20260904203511 78 109 2.6 5.2 0.00 0.00 0.00 50 984.6
20260904203010 78 156 0.9 7.0 0.00 0.00 0.00 50 984.7
20260904202509 78 100 2.6 7.0 0.00 0.00 0.00 51 984.6
20260904202012 78 84 3.5 7.0 0.00 0.00 0.00 50 984.6
20260904201509 78 100 1.7 7.0 0.00 0.00 0.00 50 984.7
20260904201009 78 110 1.7 6.1 0.00 0.00 0.00 50 984.8
20260904200508 78 86 0.9 6.1 0.00 0.00 0.00 50 984.7
20260904200008 78 121 1.7 6.1 0.00 0.00 0.00 50 984.8
20260904195511 78 103 2.6 5.2 0.00 0.01 0.00 44 984.8
20260904195006 77 360 1.7 6.1 0.00 0.01 0.00 44 984.9
20260904194505 77 137 2.6 6.1 0.00 0.01 0.00 44 984.9
20260904194006 77 100 0.9 6.1 0.00 0.01 0.00 45 984.9
20260904193505 77 112 1.7 7.0 0.00 0.01 0.00 45 984.9
20260904193005 77 54 2.6 7.0 0.00 0.01 0.00 46 985.0
20260904192506 77 78 1.7 7.0 0.00 0.01 0.00 45 985.0
20260904192004 77 76 2.6 6.1 0.00 0.01 0.00 46 985.0
20260904191503 76 151 0.9 6.1 0.00 0.01 0.00 45 985.1
20260904191004 76 170 0.9 6.1 0.00 0.01 0.00 46 985.2
20260904190504 76 86 1.7 7.8 0.00 0.01 0.00 48 985.2
20260904190003 76 67 1.7 5.2 0.00 0.01 0.00 48 985.3
20260904185500 76 169 1.7 4.3 0.00 0.01 0.00 47 985.2
20260904185059 75 140 0.9 7.0 0.00 0.01 0.00 49 985.4
20260904184616 75 136 2.6 7.0 0.00 0.01 0.00 48 985.4
20260904184059 75 90 0.0 3.5 0.00 0.01 0.00 50 985.4
20260904183559 75 90 0.0 4.3 0.00 0.01 0.00 47 985.5
20260904183059 75 171 0.9 4.3 0.00 0.01 0.00 48 985.6
20260904182602 75 146 1.7 4.3 0.00 0.01 0.00 48 985.6
20260904182058 75 100 2.6 4.3 0.00 0.01 0.00 48 985.6
20260904181557 75 83 2.6 5.2 0.00 0.01 0.00 50 985.6
20260904181155 74 11 0.9 3.5 0.00 0.01 0.00 51 985.7
20260904180555 74 9 0.0 2.6 0.00 0.01 0.00 51 985.5
20260904180054 74 355 0.0 4.3 0.00 0.01 0.00 52 985.5
20260904175553 74 44 0.9 4.3 0.00 0.01 0.00 53 985.5
20260904175052 74 21 1.7 7.8 0.00 0.01 0.00 52 985.6
20260904174551 74 29 1.7 7.8 0.00 0.01 0.00 54 985.4
20260904174050 73 348 0.9 7.8 0.00 0.01 0.00 55 985.0
20260904173548 73 107 0.9 5.2 0.00 0.01 0.00 56 985.0
20260904173100 72 26 1.7 7.0 0.00 0.01 0.00 57 985.0
20260904172546 72 61 0.9 7.0 0.00 0.01 0.00 57 985.0
20260904172045 72 74 2.6 7.0 0.00 0.01 0.00 59 985.1
20260904171547 71 19 0.9 7.8 0.00 0.01 0.00 61 985.2
20260904171042 70 360 2.6 7.0 0.00 0.01 0.00 63 985.2
20260904170541 70 13 3.5 7.8 0.00 0.01 0.00 64 985.2
20260904170041 69 74 3.5 7.8 0.00 0.01 0.00 66 985.3
20260904165540 68 22 0.9 7.8 0.00 0.01 0.00 68 985.3
20260904165036 67 22 0.9 8.7 0.00 0.01 0.00 69 985.3
20260904164534 67 355 2.6 8.7 0.00 0.01 0.00 70 985.4
20260904164033 66 314 2.6 5.2 0.00 0.01 0.00 70 985.6
20260904163532 66 336 1.7 4.3 0.00 0.01 0.00 70 985.5
20260904163030 65 349 0.9 4.3 0.00 0.01 0.00 71 985.5
20260904162529 65 22 2.6 7.0 0.00 0.01 0.00 70 985.5
20260904162027 64 338 3.5 7.0 0.00 0.01 0.00 71 985.7
20260904161526 64 347 2.6 5.2 0.00 0.01 0.00 71 985.5
20260904161028 64 22 2.6 5.2 0.00 0.01 0.00 70 985.4
20260904160525 63 355 0.9 7.8 0.00 0.01 0.00 71 985.3
20260904160021 63 29 3.5 7.8 0.00 0.01 0.00 71 985.3
20260904155520 63 342 3.5 8.7 0.00 0.01 0.00 70 985.2
20260904155018 63 360 3.5 8.7 0.00 0.01 0.00 71 985.2
20260904154516 62 327 4.3 7.8 0.00 0.01 0.00 71 985.4
20260904154016 62 360 4.3 7.8 0.00 0.01 0.00 71 985.4
20260904153517 62 9 3.5 7.0 0.00 0.01 0.00 71 985.4
20260904153016 62 332 4.3 7.0 0.00 0.01 0.00 71 985.4
20260904152514 62 341 1.7 5.2 0.00 0.01 0.00 71 985.3
20260904152014 61 339 2.6 5.2 0.00 0.01 0.00 71 985.4
20260904151514 61 345 1.7 5.2 0.00 0.01 0.00 71 985.4
20260904151013 61 340 2.6 5.2 0.00 0.01 0.00 71 985.3
20260904150512 61 360 3.5 7.0 0.00 0.01 0.00 71 985.3
20260904150013 61 345 3.5 7.0 0.00 0.01 0.00 71 985.2
20260904145510 60 347 3.5 5.2 0.00 0.01 0.00 71 985.2
20260904145009 60 300 3.5 5.2 0.00 0.01 0.00 71 985.2
20260904144509 60 306 2.6 5.2 0.00 0.01 0.00 71 985.2
20260904144008 60 360 2.6 5.2 0.00 0.01 0.00 71 985.2
20260904143508 59 351 2.6 7.0 0.00 0.01 0.00 71 985.2
20260904143008 59 344 2.6 7.0 0.00 0.01 0.00 71 985.3
20260904142508 59 360 3.5 5.2 0.00 0.01 0.00 71 985.4
20260904142011 59 274 1.7 5.2 0.00 0.01 0.00 71 985.4
20260904141507 59 281 2.6 4.3 0.00 0.01 0.00 71 985.3
20260904141006 58 296 2.6 4.3 0.00 0.01 0.00 71 985.3
20260904140506 58 303 0.9 3.5 0.00 0.01 0.00 71 985.3
20260904140007 58 360 0.9 4.3 0.00 0.01 0.00 71 985.3
20260904135507 58 331 1.7 4.3 0.00 0.01 0.00 71 985.3
20260904135005 57 360 1.7 5.2 0.00 0.01 0.00 71 985.3
20260904134508 57 277 2.6 5.2 0.00 0.01 0.00 71 985.2
20260904134006 57 298 1.7 4.3 0.00 0.01 0.00 71 985.1
20260904133507 57 360 1.7 3.5 0.00 0.01 0.00 71 985.2
20260904133004 57 306 1.7 3.5 0.00 0.01 0.00 71 985.1
20260904132504 56 307 1.7 5.2 0.00 0.01 0.00 71 985.0
20260904132003 56 283 2.6 5.2 0.00 0.01 0.00 71 985.0
20260904131504 56 282 0.9 3.5 0.00 0.01 0.00 71 985.0
20260904131004 56 300 1.7 3.5 0.00 0.01 0.00 71 985.0
20260904130507 56 287 0.9 3.5 0.00 0.01 0.00 71 985.0
20260904130103 56 360 1.7 2.6 0.00 0.01 0.00 71 985.1
20260904125502 55 267 1.7 2.6 0.00 0.01 0.00 71 985.0
20260904125002 55 294 0.9 3.5 0.00 0.01 0.00 71 984.9
20260904124613 55 292 0.9 3.5 0.00 0.01 0.00 71 984.8
20260904124059 55 297 0.9 3.5 0.00 0.01 0.00 71 984.8
20260904123603 55 288 0.9 2.6 0.00 0.01 0.00 71 984.7
20260904123103 55 287 0.0 0.0 0.00 0.01 0.00 71 984.7
20260904122559 55 286 0.0 0.0 0.00 0.01 0.00 71 984.7
20260904122059 55 286 0.0 0.0 0.00 0.01 0.00 71 984.6
20260904121558 55 275 0.0 0.0 0.00 0.01 0.00 71 984.6
20260904121103 55 275 0.0 0.9 0.00 0.01 0.00 71 984.6
20260904120556 55 275 0.0 1.7 0.00 0.01 0.00 71 984.4
20260904120056 55 275 0.0 2.6 0.00 0.01 0.00 71 984.4
20260904115600 55 275 0.9 2.6 0.00 0.01 0.00 71 984.3
20260904115059 55 284 0.0 1.7 0.00 0.01 0.00 71 984.2
20260904114601 55 284 0.0 2.6 0.00 0.01 0.00 71 984.3
20260904114055 55 284 0.9 2.6 0.00 0.01 0.00 71 984.3
20260904113554 55 284 1.7 3.5 0.00 0.01 0.00 71 984.2
20260904113053 55 268 1.7 4.3 0.00 0.01 0.00 71 984.2
20260904112552 55 268 2.6 4.3 0.00 0.01 0.00 71 983.9
20260904112052 55 254 2.6 5.2 0.00 0.01 0.00 71 983.8
20260904111551 55 248 1.7 4.3 0.00 0.01 0.00 71 983.7
20260904111052 55 254 1.7 4.3 0.00 0.01 0.00 71 983.7
20260904110550 55 261 1.7 3.5 0.00 0.01 0.00 71 983.7
20260904110050 55 254 1.7 3.5 0.00 0.01 0.00 71 983.6
20260904105549 54 244 0.9 2.6 0.00 0.01 0.00 71 983.6
20260904105050 54 234 0.9 2.6 0.00 0.01 0.00 71 983.6
20260904104550 55 234 1.7 3.5 0.00 0.01 0.00 71 983.6
20260904104049 54 235 2.6 3.5 0.00 0.01 0.00 71 983.6
20260904103548 54 277 0.9 2.6 0.00 0.01 0.00 70 983.6
20260904103049 55 277 1.7 2.6 0.00 0.01 0.00 71 983.6
20260904102552 55 277 0.0 1.7 0.00 0.01 0.00 71 983.4
20260904102050 54 277 0.9 1.7 0.00 0.01 0.00 70 983.3
20260904101547 55 277 0.0 1.7 0.00 0.01 0.00 71 983.2
20260904101046 54 277 0.9 2.6 0.00 0.01 0.00 70 983.4
20260904100546 54 277 1.7 2.6 0.00 0.01 0.00 70 983.3
20260904100056 55 277 0.0 1.7 0.00 0.01 0.00 71 983.1
20260904095545 55 277 0.0 1.7 0.00 0.01 0.00 71 983.1
20260904095044 55 277 0.9 1.7 0.00 0.01 0.00 70 983.1
20260904094554 55 277 0.9 1.7 0.00 0.01 0.00 70 983.0
20260904094044 55 277 0.0 2.6 0.00 0.01 0.00 70 983.1
20260904093545 55 277 1.7 2.6 0.00 0.01 0.00 70 983.1
20260904093043 55 23 0.9 1.7 0.00 0.01 0.00 70 983.0
20260904092641 56 23 0.9 1.7 0.00 0.01 0.00 70 982.9
20260904092040 56 23 0.9 1.7 0.00 0.01 0.00 70 982.8
20260904091539 56 23 0.9 1.7 0.00 0.01 0.00 70 982.7
20260904091039 57 23 0.0 1.7 0.00 0.01 0.00 70 982.7
20260904090536 57 23 0.0 0.0 0.00 0.01 0.00 70 982.6
20260904090048 57 23 0.0 0.0 0.00 0.01 0.00 70 982.7
20260904085536 57 23 0.0 0.0 0.00 0.01 0.00 70 982.6
20260904085035 57 23 0.0 0.0 0.00 0.01 0.00 70 982.6
20260904084536 57 23 0.0 0.0 0.00 0.01 0.00 69 982.6
20260904084033 58 23 0.0 0.9 0.00 0.01 0.00 69 982.5
20260904083536 58 23 0.0 0.9 0.00 0.01 0.00 70 982.4
20260904083105 58 23 0.0 0.9 0.00 0.01 0.00 70 982.4
20260904082535 58 23 0.0 1.7 0.00 0.01 0.00 70 982.4
20260904082033 58 23 0.0 1.7 0.00 0.01 0.00 70 982.5
20260904081534 58 23 0.0 0.9 0.00 0.01 0.00 69 982.5
20260904081031 58 23 0.0 0.9 0.00 0.01 0.00 69 982.5
20260904080532 58 23 0.0 0.0 0.00 0.01 0.00 70 982.5
20260904080031 58 23 0.0 0.0 0.00 0.01 0.00 70 982.4
20260904075531 58 23 0.0 0.0 0.00 0.01 0.00 69 982.5
20260904075032 58 23 0.0 0.9 0.00 0.01 0.00 69 982.4
20260904074532 58 23 0.0 0.9 0.00 0.01 0.00 69 982.3
20260904074028 59 23 0.0 0.0 0.00 0.01 0.00 69 982.4
20260904073527 59 23 0.0 0.0 0.00 0.01 0.00 69 982.4
20260904073026 59 23 0.0 0.9 0.00 0.01 0.00 69 982.3
20260904072526 60 23 0.0 0.9 0.00 0.01 0.00 69 982.3
20260904072030 60 23 0.0 0.0 0.00 0.01 0.00 69 982.3
20260904071526 60 23 0.0 0.9 0.00 0.01 0.00 69 982.4
20260904071024 60 23 0.0 0.9 0.00 0.01 0.00 69 982.3
20260904070524 60 23 0.0 0.9 0.00 0.01 0.00 69 982.3
20260904070044 60 23 0.0 0.9 0.00 0.01 0.00 69 982.3
20260904065523 60 23 0.0 0.9 0.00 0.01 0.00 69 982.3
20260904065026 60 23 0.0 0.9 0.00 0.01 0.00 69 982.3
20260904064524 60 23 0.0 1.7 0.00 0.01 0.00 69 982.2
20260904064022 60 23 0.0 0.9 0.00 0.01 0.00 68 982.2
20260904063529 60 25 0.0 0.0 0.00 0.01 0.00 68 982.2
20260904063027 60 25 0.0 0.0 0.00 0.01 0.00 68 982.3
20260904062520 60 25 0.0 0.0 0.00 0.01 0.00 68 982.3
20260904062020 61 25 0.0 0.0 0.00 0.01 0.00 68 982.3
20260904061525 61 25 0.0 0.0 0.00 0.01 0.00 68 982.2
20260904061018 61 25 0.0 0.0 0.00 0.01 0.00 68 982.3
20260904060521 61 25 0.0 0.0 0.00 0.01 0.00 67 982.4
20260904060018 61 25 0.0 0.0 0.00 0.01 0.00 67 982.5